owner,sensor,date,latitude,longitude,vertical_datum,sea_water_temperature,qcFlag
Anadarko,ioos:station:wmo:42865:1,2020-01-19T22:40:00Z,28.1628,-88.4839,11.6,21.9,11111222
Anadarko,ioos:station:wmo:42865:1,2020-01-19T22:50:00Z,28.1628,-88.4839,11.7,21.9,11111222
Anadarko,ioos:station:wmo:42865:1,2020-01-19T23:00:00Z,28.1628,-88.4839,11.7,21.9,11111222
Anadarko,ioos:station:wmo:42865:1,2020-01-19T23:10:00Z,28.1628,-88.4839,11.7,21.9,11111222
Anadarko,ioos:station:wmo:42865:1,2020-01-19T23:20:00Z,28.1628,-88.4839,11.6,21.9,11111222
Anadarko,ioos:station:wmo:42865:1,2020-01-19T23:30:00Z,28.1628,-88.4839,11.6,21.9,11111222
Anadarko,ioos:station:wmo:42865:1,2020-01-19T23:40:00Z,28.1628,-88.4839,11.6,21.9,11111222
Anadarko,ioos:station:wmo:42865:1,2020-01-19T23:50:00Z,28.1628,-88.4839,11.6,21.9,11111222
Anadarko,ioos:station:wmo:42865:1,2020-01-20T00:00:00Z,28.1628,-88.4839,11.6,21.8,11111222
Anadarko,ioos:station:wmo:42865:1,2020-01-20T00:10:00Z,28.1628,-88.4839,11.6,21.8,11111222
Anadarko,ioos:station:wmo:42865:1,2020-01-20T00:20:00Z,28.1628,-88.4839,11.6,21.8,11111222
Anadarko,ioos:station:wmo:42865:1,2020-01-20T00:30:00Z,28.1628,-88.4839,11.5,21.8,11111222
Anadarko,ioos:station:wmo:42865:1,2020-01-20T00:40:00Z,28.1628,-88.4839,11.6,21.9,11111222
Anadarko,ioos:station:wmo:42865:1,2020-01-20T00:50:00Z,28.1628,-88.4839,11.6,21.9,11111222
Anadarko,ioos:station:wmo:42865:1,2020-01-20T01:00:00Z,28.1628,-88.4839,11.7,21.9,11111222
Anadarko,ioos:station:wmo:42865:1,2020-01-20T01:10:00Z,28.1628,-88.4839,11.7,21.9,11111222
Anadarko,ioos:station:wmo:42865:1,2020-01-20T01:20:00Z,28.1628,-88.4839,11.6,21.9,11111222
Anadarko,ioos:station:wmo:42865:1,2020-01-20T01:30:00Z,28.1628,-88.4839,11.5,21.9,11111222
Anadarko,ioos:station:wmo:42865:1,2020-01-20T01:44:00Z,28.1628,-88.4839,11.5,21.9,11111222
Anadarko,ioos:station:wmo:42865:1,2020-01-20T01:54:00Z,28.1628,-88.4839,11.5,21.9,11111222
Anadarko,ioos:station:wmo:42865:1,2020-01-20T02:04:00Z,28.1628,-88.4839,11.6,22.0,11111222
Anadarko,ioos:station:wmo:42865:1,2020-01-20T02:14:00Z,28.1628,-88.4839,11.7,22.0,11111222
Anadarko,ioos:station:wmo:42865:1,2020-01-20T02:24:00Z,28.1628,-88.4839,11.6,22.0,11111222
Anadarko,ioos:station:wmo:42865:1,2020-01-20T02:34:00Z,28.1628,-88.4839,11.6,22.0,11111222
Anadarko,ioos:station:wmo:42865:1,2020-01-20T02:44:00Z,28.1628,-88.4839,11.6,22.0,11111222
Anadarko,ioos:station:wmo:42865:1,2020-01-20T02:54:00Z,28.1628,-88.4839,11.6,22.0,11111222
Anadarko,ioos:station:wmo:42865:1,2020-01-20T03:04:00Z,28.1628,-88.4839,11.6,22.0,11111222
Anadarko,ioos:station:wmo:42865:1,2020-01-20T03:14:00Z,28.1628,-88.4839,11.9,22.0,11111222
Anadarko,ioos:station:wmo:42865:1,2020-01-20T03:24:00Z,28.1628,-88.4839,11.9,22.0,11111222
Anadarko,ioos:station:wmo:42865:1,2020-01-20T03:34:00Z,28.1628,-88.4839,11.9,22.0,11111222
Anadarko,ioos:station:wmo:42865:1,2020-01-20T03:44:00Z,28.1628,-88.4839,11.9,22.1,11111222
Anadarko,ioos:station:wmo:42865:1,2020-01-20T03:54:00Z,28.1628,-88.4839,11.9,22.1,11111222
Anadarko,ioos:station:wmo:42865:1,2020-01-20T04:04:00Z,28.1628,-88.4839,11.9,22.1,11111222
Anadarko,ioos:station:wmo:42865:1,2020-01-20T04:14:00Z,28.1628,-88.4839,11.9,22.1,11111222
Anadarko,ioos:station:wmo:42865:1,2020-01-20T04:24:00Z,28.1628,-88.4839,11.9,22.1,11111222
Anadarko,ioos:station:wmo:42865:1,2020-01-20T04:34:00Z,28.1628,-88.4839,12.0,22.1,11111222
Anadarko,ioos:station:wmo:42865:1,2020-01-20T04:44:00Z,28.1628,-88.4839,12.0,22.1,11111222
Anadarko,ioos:station:wmo:42865:1,2020-01-20T04:54:00Z,28.1628,-88.4839,12.0,22.1,11111222
Anadarko,ioos:station:wmo:42865:1,2020-01-20T05:04:00Z,28.1628,-88.4839,12.0,22.1,11111222
Anadarko,ioos:station:wmo:42865:1,2020-01-20T05:14:00Z,28.1628,-88.4839,12.0,22.1,11111222
Anadarko,ioos:station:wmo:42865:1,2020-01-20T05:24:00Z,28.1628,-88.4839,12.0,22.1,11111222
Anadarko,ioos:station:wmo:42865:1,2020-01-20T05:34:00Z,28.1628,-88.4839,12.0,22.1,11111222
Anadarko,ioos:station:wmo:42865:1,2020-01-20T05:44:00Z,28.1628,-88.4839,12.0,22.1,11111222
Anadarko,ioos:station:wmo:42865:1,2020-01-20T05:54:00Z,28.1628,-88.4839,12.1,22.1,11111222
Anadarko,ioos:station:wmo:42865:1,2020-01-20T06:04:00Z,28.1628,-88.4839,11.9,22.1,11111222
Anadarko,ioos:station:wmo:42865:1,2020-01-20T06:14:00Z,28.1628,-88.4839,11.9,22.1,11111222
Anadarko,ioos:station:wmo:42865:1,2020-01-20T06:24:00Z,28.1628,-88.4839,11.9,22.1,11111222
Anadarko,ioos:station:wmo:42865:1,2020-01-20T06:34:00Z,28.1628,-88.4839,11.8,22.1,11111222
Anadarko,ioos:station:wmo:42865:1,2020-01-20T06:44:00Z,28.1628,-88.4839,11.9,22.1,11111222
Anadarko,ioos:station:wmo:42865:1,2020-01-20T06:54:00Z,28.1628,-88.4839,11.8,22.1,11111222
Anadarko,ioos:station:wmo:42865:1,2020-01-20T07:04:00Z,28.1628,-88.4839,11.6,22.1,11111222
Anadarko,ioos:station:wmo:42865:1,2020-01-20T07:14:00Z,28.1628,-88.4839,11.6,22.1,11111222
Anadarko,ioos:station:wmo:42865:1,2020-01-20T07:24:00Z,28.1628,-88.4839,11.6,22.1,11111222
Anadarko,ioos:station:wmo:42865:1,2020-01-20T07:35:00Z,28.1628,-88.4839,11.5,22.1,11111222
Anadarko,ioos:station:wmo:42865:1,2020-01-20T07:45:00Z,28.1628,-88.4839,11.6,22.1,11111222
Anadarko,ioos:station:wmo:42865:1,2020-01-20T07:55:00Z,28.1628,-88.4839,11.6,22.1,11111222
Anadarko,ioos:station:wmo:42865:1,2020-01-20T08:05:00Z,28.1628,-88.4839,11.6,22.1,11111222
Anadarko,ioos:station:wmo:42865:1,2020-01-20T08:15:00Z,28.1628,-88.4839,11.6,22.1,11111222
Anadarko,ioos:station:wmo:42865:1,2020-01-20T08:25:00Z,28.1628,-88.4839,11.6,22.1,11111222
Anadarko,ioos:station:wmo:42865:1,2020-01-20T08:35:00Z,28.1628,-88.4839,11.6,22.1,11111222
Anadarko,ioos:station:wmo:42865:1,2020-01-20T08:45:00Z,28.1628,-88.4839,11.6,22.1,11111222
Anadarko,ioos:station:wmo:42865:1,2020-01-20T08:55:00Z,28.1628,-88.4839,11.6,22.0,11111222
Anadarko,ioos:station:wmo:42865:1,2020-01-20T09:05:00Z,28.1628,-88.4839,11.3,22.0,11111222
Anadarko,ioos:station:wmo:42865:1,2020-01-20T09:15:00Z,28.1628,-88.4839,11.7,22.0,11111222
Anadarko,ioos:station:wmo:42865:1,2020-01-20T09:25:00Z,28.1628,-88.4839,11.7,22.0,11111222
Anadarko,ioos:station:wmo:42865:1,2020-01-20T09:35:00Z,28.1628,-88.4839,11.7,22.0,11111222
Anadarko,ioos:station:wmo:42865:1,2020-01-20T09:45:00Z,28.1628,-88.4839,11.7,22.0,11111222
Anadarko,ioos:station:wmo:42865:1,2020-01-20T09:55:00Z,28.1628,-88.4839,11.7,22.0,11111222
Anadarko,ioos:station:wmo:42865:1,2020-01-20T10:05:00Z,28.1628,-88.4839,11.8,22.0,11111222
Anadarko,ioos:station:wmo:42865:1,2020-01-20T10:15:00Z,28.1628,-88.4839,11.7,22.0,11111222
Anadarko,ioos:station:wmo:42865:1,2020-01-20T10:25:00Z,28.1628,-88.4839,11.8,22.0,11111222
Anadarko,ioos:station:wmo:42865:1,2020-01-20T10:35:00Z,28.1628,-88.4839,11.8,22.0,11111222
Anadarko,ioos:station:wmo:42865:1,2020-01-20T10:45:00Z,28.1628,-88.4839,11.8,22.0,11111222
Anadarko,ioos:station:wmo:42865:1,2020-01-20T10:55:00Z,28.1628,-88.4839,11.8,22.0,11111222
Anadarko,ioos:station:wmo:42865:1,2020-01-20T11:05:00Z,28.1628,-88.4839,11.8,22.0,11111222
Anadarko,ioos:station:wmo:42865:1,2020-01-20T11:15:00Z,28.1628,-88.4839,11.7,22.0,11111222
Anadarko,ioos:station:wmo:42865:1,2020-01-20T11:25:00Z,28.1628,-88.4839,11.7,22.0,11111222
Anadarko,ioos:station:wmo:42865:1,2020-01-20T11:35:00Z,28.1628,-88.4839,11.8,22.0,11111222
Anadarko,ioos:station:wmo:42865:1,2020-01-20T11:45:00Z,28.1628,-88.4839,11.8,22.0,11111222
Anadarko,ioos:station:wmo:42865:1,2020-01-20T11:55:00Z,28.1628,-88.4839,11.8,22.0,11111222
Anadarko,ioos:station:wmo:42865:1,2020-01-20T12:05:00Z,28.1628,-88.4839,11.8,22.0,11111222
Anadarko,ioos:station:wmo:42865:1,2020-01-20T12:15:00Z,28.1628,-88.4839,11.8,22.0,11111222
Anadarko,ioos:station:wmo:42865:1,2020-01-20T12:25:00Z,28.1628,-88.4839,11.8,22.0,11111222
Anadarko,ioos:station:wmo:42865:1,2020-01-20T12:35:00Z,28.1628,-88.4839,11.8,22.0,11111222
Anadarko,ioos:station:wmo:42865:1,2020-01-20T12:45:00Z,28.1628,-88.4839,11.8,22.0,11111222
Anadarko,ioos:station:wmo:42865:1,2020-01-20T12:55:00Z,28.1628,-88.4839,11.8,22.0,11111222
Anadarko,ioos:station:wmo:42865:1,2020-01-20T13:05:00Z,28.1628,-88.4839,11.7,22.0,11111222
Anadarko,ioos:station:wmo:42865:1,2020-01-20T13:15:00Z,28.1628,-88.4839,11.8,22.0,11111222
Anadarko,ioos:station:wmo:42865:1,2020-01-20T13:25:00Z,28.1628,-88.4839,11.7,22.0,11111222
Anadarko,ioos:station:wmo:42865:1,2020-01-20T13:35:00Z,28.1628,-88.4839,11.7,22.0,11111222
Anadarko,ioos:station:wmo:42865:1,2020-01-20T13:47:00Z,28.1628,-88.4839,11.8,22.0,11111222
Anadarko,ioos:station:wmo:42865:1,2020-01-20T13:57:00Z,28.1628,-88.4839,11.7,22.0,11111222
Anadarko,ioos:station:wmo:42865:1,2020-01-20T14:07:00Z,28.1628,-88.4839,11.8,22.0,11111222
Anadarko,ioos:station:wmo:42865:1,2020-01-20T14:17:00Z,28.1628,-88.4839,11.8,22.0,11111222
Anadarko,ioos:station:wmo:42865:1,2020-01-20T15:06:00Z,28.1628,-88.4839,11.7,22.0,11111222
Anadarko,ioos:station:wmo:42865:1,2020-01-20T15:16:00Z,28.1628,-88.4839,11.7,22.0,11111222
Anadarko,ioos:station:wmo:42865:1,2020-01-20T15:26:00Z,28.1628,-88.4839,11.8,21.9,11111222
Anadarko,ioos:station:wmo:42865:1,2020-01-20T15:36:00Z,28.1628,-88.4839,11.7,21.9,11111222
Anadarko,ioos:station:wmo:42865:1,2020-01-20T15:50:00Z,28.1628,-88.4839,11.8,21.9,11111222
Anadarko,ioos:station:wmo:42865:1,2020-01-20T16:01:00Z,28.1628,-88.4839,11.8,21.9,11111222
Anadarko,ioos:station:wmo:42865:1,2020-01-20T16:11:00Z,28.1628,-88.4839,11.8,21.9,11111222
Anadarko,ioos:station:wmo:42865:1,2020-01-20T16:21:00Z,28.1628,-88.4839,11.8,21.9,11111222
Anadarko,ioos:station:wmo:42865:1,2020-01-20T16:31:00Z,28.1628,-88.4839,11.7,21.9,11111222
Anadarko,ioos:station:wmo:42865:1,2020-01-20T16:41:00Z,28.1628,-88.4839,11.7,21.9,11111222
Anadarko,ioos:station:wmo:42865:1,2020-01-20T16:51:00Z,28.1628,-88.4839,11.7,21.9,11111222
Anadarko,ioos:station:wmo:42865:1,2020-01-20T17:01:00Z,28.1628,-88.4839,11.8,21.9,11111222
Anadarko,ioos:station:wmo:42865:1,2020-01-20T17:11:00Z,28.1628,-88.4839,11.8,21.9,11111222
Anadarko,ioos:station:wmo:42865:1,2020-01-20T17:21:00Z,28.1628,-88.4839,11.8,21.8,11111222
Anadarko,ioos:station:wmo:42865:1,2020-01-20T17:31:00Z,28.1628,-88.4839,11.7,21.8,11111222
Anadarko,ioos:station:wmo:42865:1,2020-01-20T17:41:00Z,28.1628,-88.4839,11.8,21.8,11111222
Anadarko,ioos:station:wmo:42865:1,2020-01-20T17:51:00Z,28.1628,-88.4839,11.8,21.8,11111222
Anadarko,ioos:station:wmo:42865:1,2020-01-20T18:01:00Z,28.1628,-88.4839,11.8,21.8,11111222
Anadarko,ioos:station:wmo:42865:1,2020-01-20T18:11:00Z,28.1628,-88.4839,11.8,21.8,11111222
Anadarko,ioos:station:wmo:42865:1,2020-01-20T18:21:00Z,28.1628,-88.4839,11.8,21.8,11111222
Anadarko,ioos:station:wmo:42865:1,2020-01-20T18:31:00Z,28.1628,-88.4839,11.8,21.8,11111222
Anadarko,ioos:station:wmo:42865:1,2020-01-20T18:41:00Z,28.1628,-88.4839,11.8,21.8,11111222
Anadarko,ioos:station:wmo:42865:1,2020-01-20T18:51:00Z,28.1628,-88.4839,11.8,21.8,11111222
Anadarko,ioos:station:wmo:42865:1,2020-01-20T19:01:00Z,28.1628,-88.4839,11.8,21.8,11111222
Anadarko,ioos:station:wmo:42865:1,2020-01-20T19:11:00Z,28.1628,-88.4839,11.8,21.8,11111222
Anadarko,ioos:station:wmo:42865:1,2020-01-20T19:21:00Z,28.1628,-88.4839,11.8,21.8,11111222
Anadarko,ioos:station:wmo:42865:1,2020-01-20T19:31:00Z,28.1628,-88.4839,11.8,21.8,11111222
Anadarko,ioos:station:wmo:42865:1,2020-01-20T19:41:00Z,28.1628,-88.4839,11.8,21.9,11111222
Anadarko,ioos:station:wmo:42865:1,2020-01-20T19:51:00Z,28.1628,-88.4839,11.8,21.9,11111222
Anadarko,ioos:station:wmo:42865:1,2020-01-20T20:01:00Z,28.1628,-88.4839,11.8,21.9,11111222
Anadarko,ioos:station:wmo:42865:1,2020-01-20T20:11:00Z,28.1628,-88.4839,11.8,21.9,11111222
Anadarko,ioos:station:wmo:42865:1,2020-01-20T20:21:00Z,28.1628,-88.4839,11.8,21.9,11111222
Anadarko,ioos:station:wmo:42865:1,2020-01-20T20:31:00Z,28.1628,-88.4839,11.8,22.0,11111222
Anadarko,ioos:station:wmo:42865:1,2020-01-20T20:41:00Z,28.1628,-88.4839,11.8,22.0,11111222
Anadarko,ioos:station:wmo:42865:1,2020-01-20T20:51:00Z,28.1628,-88.4839,11.8,22.0,11111222
Anadarko,ioos:station:wmo:42865:1,2020-01-20T21:01:00Z,28.1628,-88.4839,11.8,22.0,11111222
Anadarko,ioos:station:wmo:42865:1,2020-01-20T21:11:00Z,28.1628,-88.4839,11.8,22.0,11111222
Anadarko,ioos:station:wmo:42865:1,2020-01-20T21:21:00Z,28.1628,-88.4839,11.8,22.0,11111222
Anadarko,ioos:station:wmo:42865:1,2020-01-20T21:31:00Z,28.1628,-88.4839,11.8,22.0,11111222
Anadarko,ioos:station:wmo:42865:1,2020-01-20T21:41:00Z,28.1628,-88.4839,11.8,22.0,11111222
Anadarko,ioos:station:wmo:42865:1,2020-01-20T21:51:00Z,28.1628,-88.4839,11.8,22.0,11111222
Anadarko,ioos:station:wmo:42865:1,2020-01-20T22:01:00Z,28.1628,-88.4839,11.8,22.1,11111222
Anadarko,ioos:station:wmo:42865:1,2020-01-20T22:11:00Z,28.1628,-88.4839,11.8,22.1,11111222
Anadarko,ioos:station:wmo:42865:1,2020-01-20T22:21:00Z,28.1628,-88.4839,11.8,22.1,11111222
Anadarko,ioos:station:wmo:42865:1,2020-01-20T22:31:00Z,28.1628,-88.4839,11.8,22.1,11111222
Anadarko,ioos:station:wmo:42865:1,2020-01-20T22:41:00Z,28.1628,-88.4839,11.8,22.1,11111222
Anadarko,ioos:station:wmo:42865:1,2020-01-20T22:51:00Z,28.1628,-88.4839,11.8,22.1,11111222
Anadarko,ioos:station:wmo:42865:1,2020-01-20T23:01:00Z,28.1628,-88.4839,11.9,22.1,11111222
Anadarko,ioos:station:wmo:42865:1,2020-01-20T23:11:00Z,28.1628,-88.4839,11.8,22.1,11111222
Anadarko,ioos:station:wmo:42865:1,2020-01-20T23:22:00Z,28.1628,-88.4839,11.9,22.1,11111222
Anadarko,ioos:station:wmo:42865:1,2020-01-20T23:32:00Z,28.1628,-88.4839,11.9,22.1,11111222
Anadarko,ioos:station:wmo:42865:1,2020-01-20T23:42:00Z,28.1628,-88.4839,11.8,22.1,11111222
Anadarko,ioos:station:wmo:42865:1,2020-01-20T23:52:00Z,28.1628,-88.4839,11.9,22.1,11111222
Anadarko,ioos:station:wmo:42865:1,2020-01-21T00:02:00Z,28.1628,-88.4839,11.9,22.1,11111222
Anadarko,ioos:station:wmo:42865:1,2020-01-21T00:12:00Z,28.1628,-88.4839,11.8,22.1,11111222
Anadarko,ioos:station:wmo:42865:1,2020-01-21T00:22:00Z,28.1628,-88.4839,11.8,22.1,11111222
Anadarko,ioos:station:wmo:42865:1,2020-01-21T00:32:00Z,28.1628,-88.4839,11.8,22.1,11111222
Anadarko,ioos:station:wmo:42865:1,2020-01-21T00:42:00Z,28.1628,-88.4839,11.8,22.1,11111222
Anadarko,ioos:station:wmo:42865:1,2020-01-21T00:52:00Z,28.1628,-88.4839,11.8,22.1,11111222
Anadarko,ioos:station:wmo:42865:1,2020-01-21T01:02:00Z,28.1628,-88.4839,11.8,22.1,11111222
Anadarko,ioos:station:wmo:42865:1,2020-01-21T01:12:00Z,28.1628,-88.4839,11.9,22.1,11111222
Anadarko,ioos:station:wmo:42865:1,2020-01-21T01:22:00Z,28.1628,-88.4839,11.9,22.1,11111222
Anadarko,ioos:station:wmo:42865:1,2020-01-21T01:32:00Z,28.1628,-88.4839,11.8,22.1,11111222
Anadarko,ioos:station:wmo:42865:1,2020-01-21T01:42:00Z,28.1628,-88.4839,11.9,22.1,11111222
Anadarko,ioos:station:wmo:42865:1,2020-01-21T01:52:00Z,28.1628,-88.4839,11.8,22.1,11111222
Anadarko,ioos:station:wmo:42865:1,2020-01-21T02:02:00Z,28.1628,-88.4839,11.9,22.1,11111222
Anadarko,ioos:station:wmo:42865:1,2020-01-21T02:12:00Z,28.1628,-88.4839,11.9,22.1,11111222
Anadarko,ioos:station:wmo:42865:1,2020-01-21T02:22:00Z,28.1628,-88.4839,11.9,22.1,11111222
Anadarko,ioos:station:wmo:42865:1,2020-01-21T02:32:00Z,28.1628,-88.4839,11.9,22.1,11111222
Anadarko,ioos:station:wmo:42865:1,2020-01-21T02:42:00Z,28.1628,-88.4839,11.9,22.1,11111222
Anadarko,ioos:station:wmo:42865:1,2020-01-21T02:52:00Z,28.1628,-88.4839,11.8,22.1,11111222
Anadarko,ioos:station:wmo:42865:1,2020-01-21T03:02:00Z,28.1628,-88.4839,11.7,22.1,11111222
Anadarko,ioos:station:wmo:42865:1,2020-01-21T03:12:00Z,28.1628,-88.4839,11.8,22.1,11111222
Anadarko,ioos:station:wmo:42865:1,2020-01-21T03:22:00Z,28.1628,-88.4839,11.8,22.1,11111222
Anadarko,ioos:station:wmo:42865:1,2020-01-21T03:32:00Z,28.1628,-88.4839,11.8,22.2,11111222
Anadarko,ioos:station:wmo:42865:1,2020-01-21T03:42:00Z,28.1628,-88.4839,11.8,22.2,11111222
Anadarko,ioos:station:wmo:42865:1,2020-01-21T03:52:00Z,28.1628,-88.4839,11.9,22.2,11111222
Anadarko,ioos:station:wmo:42865:1,2020-01-21T04:02:00Z,28.1628,-88.4839,11.8,22.2,11111222
Anadarko,ioos:station:wmo:42865:1,2020-01-21T04:12:00Z,28.1628,-88.4839,11.9,22.2,11111222
Anadarko,ioos:station:wmo:42865:1,2020-01-21T04:22:00Z,28.1628,-88.4839,11.9,22.2,11111222
Anadarko,ioos:station:wmo:42865:1,2020-01-21T04:32:00Z,28.1628,-88.4839,11.9,22.2,11111222
Anadarko,ioos:station:wmo:42865:1,2020-01-21T04:42:00Z,28.1628,-88.4839,11.9,22.2,11111222
Anadarko,ioos:station:wmo:42865:1,2020-01-21T04:52:00Z,28.1628,-88.4839,11.9,22.2,11111222
Anadarko,ioos:station:wmo:42865:1,2020-01-21T05:02:00Z,28.1628,-88.4839,11.9,22.2,11111222
Anadarko,ioos:station:wmo:42865:1,2020-01-21T05:12:00Z,28.1628,-88.4839,11.9,22.1,11111222
Anadarko,ioos:station:wmo:42865:1,2020-01-21T05:22:00Z,28.1628,-88.4839,11.9,22.1,11111222
Anadarko,ioos:station:wmo:42865:1,2020-01-21T05:32:00Z,28.1628,-88.4839,12.0,22.2,11111222
Anadarko,ioos:station:wmo:42865:1,2020-01-21T05:42:00Z,28.1628,-88.4839,12.0,22.1,11111222
Anadarko,ioos:station:wmo:42865:1,2020-01-21T05:52:00Z,28.1628,-88.4839,12.0,22.1,11111222
Anadarko,ioos:station:wmo:42865:1,2020-01-21T06:02:00Z,28.1628,-88.4839,12.0,22.1,11111222
Anadarko,ioos:station:wmo:42865:1,2020-01-21T06:12:00Z,28.1628,-88.4839,12.0,22.1,11111222
Anadarko,ioos:station:wmo:42865:1,2020-01-21T06:22:00Z,28.1628,-88.4839,12.0,22.1,11111222
Anadarko,ioos:station:wmo:42865:1,2020-01-21T06:32:00Z,28.1628,-88.4839,11.9,22.1,11111222
Anadarko,ioos:station:wmo:42865:1,2020-01-21T06:43:00Z,28.1628,-88.4839,11.9,22.1,11111222
Anadarko,ioos:station:wmo:42865:1,2020-01-21T06:53:00Z,28.1628,-88.4839,11.9,22.1,11111222
Anadarko,ioos:station:wmo:42865:1,2020-01-21T07:03:00Z,28.1628,-88.4839,12.0,22.1,11111222
Anadarko,ioos:station:wmo:42865:1,2020-01-21T07:13:00Z,28.1628,-88.4839,11.9,22.1,11111222
Anadarko,ioos:station:wmo:42865:1,2020-01-21T07:23:00Z,28.1628,-88.4839,12.0,22.1,11111222
Anadarko,ioos:station:wmo:42865:1,2020-01-21T07:33:00Z,28.1628,-88.4839,11.9,22.1,11111222
Anadarko,ioos:station:wmo:42865:1,2020-01-21T07:43:00Z,28.1628,-88.4839,12.0,22.1,11111222
Anadarko,ioos:station:wmo:42865:1,2020-01-21T07:53:00Z,28.1628,-88.4839,11.9,22.0,11111222
Anadarko,ioos:station:wmo:42865:1,2020-01-21T08:03:00Z,28.1628,-88.4839,11.9,22.0,11111222
Anadarko,ioos:station:wmo:42865:1,2020-01-21T08:13:00Z,28.1628,-88.4839,11.9,22.0,11111222
Anadarko,ioos:station:wmo:42865:1,2020-01-21T08:23:00Z,28.1628,-88.4839,11.9,22.0,11111222
Anadarko,ioos:station:wmo:42865:1,2020-01-21T08:33:00Z,28.1628,-88.4839,11.9,21.9,11111222
Anadarko,ioos:station:wmo:42865:1,2020-01-21T08:43:00Z,28.1628,-88.4839,11.9,21.9,11111222
Anadarko,ioos:station:wmo:42865:1,2020-01-21T08:53:00Z,28.1628,-88.4839,11.9,21.9,11111222
Anadarko,ioos:station:wmo:42865:1,2020-01-21T09:03:00Z,28.1628,-88.4839,11.8,21.9,11111222
Anadarko,ioos:station:wmo:42865:1,2020-01-21T09:13:00Z,28.1628,-88.4839,11.8,21.9,11111222
Anadarko,ioos:station:wmo:42865:1,2020-01-21T09:23:00Z,28.1628,-88.4839,11.9,21.8,11111222
Anadarko,ioos:station:wmo:42865:1,2020-01-21T09:33:00Z,28.1628,-88.4839,11.9,21.8,11111222
Anadarko,ioos:station:wmo:42865:1,2020-01-21T09:43:00Z,28.1628,-88.4839,11.8,21.8,11111222
Anadarko,ioos:station:wmo:42865:1,2020-01-21T09:53:00Z,28.1628,-88.4839,11.8,21.8,11111222
Anadarko,ioos:station:wmo:42865:1,2020-01-21T10:03:00Z,28.1628,-88.4839,11.9,21.8,11111222
Anadarko,ioos:station:wmo:42865:1,2020-01-21T10:13:00Z,28.1628,-88.4839,12.0,21.7,11111222
Anadarko,ioos:station:wmo:42865:1,2020-01-21T10:23:00Z,28.1628,-88.4839,12.0,21.7,11111222
Anadarko,ioos:station:wmo:42865:1,2020-01-21T10:33:00Z,28.1628,-88.4839,12.0,21.6,11111222
Anadarko,ioos:station:wmo:42865:1,2020-01-21T10:43:00Z,28.1628,-88.4839,12.0,21.6,11111222
Anadarko,ioos:station:wmo:42865:1,2020-01-21T10:53:00Z,28.1628,-88.4839,12.0,21.6,11111222
Anadarko,ioos:station:wmo:42865:1,2020-01-21T11:03:00Z,28.1628,-88.4839,12.0,21.6,11111222
Anadarko,ioos:station:wmo:42865:1,2020-01-21T11:13:00Z,28.1628,-88.4839,11.9,21.6,11111222
Anadarko,ioos:station:wmo:42865:1,2020-01-21T11:23:00Z,28.1628,-88.4839,12.0,21.5,11111222
Anadarko,ioos:station:wmo:42865:1,2020-01-21T11:33:00Z,28.1628,-88.4839,11.9,21.5,11111222
Anadarko,ioos:station:wmo:42865:1,2020-01-21T11:43:00Z,28.1628,-88.4839,11.8,21.5,11111222
Anadarko,ioos:station:wmo:42865:1,2020-01-21T11:53:00Z,28.1628,-88.4839,11.8,21.5,11111222
Anadarko,ioos:station:wmo:42865:1,2020-01-21T12:03:00Z,28.1628,-88.4839,11.8,21.5,11111222
Anadarko,ioos:station:wmo:42865:1,2020-01-21T12:13:00Z,28.1628,-88.4839,11.7,21.5,11111222
Anadarko,ioos:station:wmo:42865:1,2020-01-21T12:23:00Z,28.1628,-88.4839,11.8,21.5,11111222
Anadarko,ioos:station:wmo:42865:1,2020-01-21T12:33:00Z,28.1628,-88.4839,11.8,21.5,11111222
Anadarko,ioos:station:wmo:42865:1,2020-01-21T12:43:00Z,28.1628,-88.4839,11.8,21.5,11111222
Anadarko,ioos:station:wmo:42865:1,2020-01-21T12:53:00Z,28.1628,-88.4839,11.8,21.5,11111222
Anadarko,ioos:station:wmo:42865:1,2020-01-21T13:03:00Z,28.1628,-88.4839,11.8,21.5,11111222
Anadarko,ioos:station:wmo:42865:1,2020-01-21T13:13:00Z,28.1628,-88.4839,11.7,21.5,11111222
Anadarko,ioos:station:wmo:42865:1,2020-01-21T13:23:00Z,28.1628,-88.4839,11.6,21.5,11111222
Anadarko,ioos:station:wmo:42865:1,2020-01-21T13:33:00Z,28.1628,-88.4839,11.7,21.5,11111222
Anadarko,ioos:station:wmo:42865:1,2020-01-21T13:43:00Z,28.1628,-88.4839,11.7,21.5,11111222
Anadarko,ioos:station:wmo:42865:1,2020-01-21T13:53:00Z,28.1628,-88.4839,11.8,21.5,11111222
Anadarko,ioos:station:wmo:42865:1,2020-01-21T14:04:00Z,28.1628,-88.4839,11.9,21.4,11111222
Anadarko,ioos:station:wmo:42865:1,2020-01-21T14:14:00Z,28.1628,-88.4839,11.8,21.4,11111222
Anadarko,ioos:station:wmo:42865:1,2020-01-21T14:24:00Z,28.1628,-88.4839,11.7,21.4,11111222
Anadarko,ioos:station:wmo:42865:1,2020-01-21T14:34:00Z,28.1628,-88.4839,11.6,21.4,11111222
Anadarko,ioos:station:wmo:42865:1,2020-01-21T14:44:00Z,28.1628,-88.4839,11.7,21.4,11111222
Anadarko,ioos:station:wmo:42865:1,2020-01-21T14:54:00Z,28.1628,-88.4839,11.7,21.4,11111222
Anadarko,ioos:station:wmo:42865:1,2020-01-21T15:04:00Z,28.1628,-88.4839,11.9,21.4,11111222
Anadarko,ioos:station:wmo:42865:1,2020-01-21T15:14:00Z,28.1628,-88.4839,11.9,21.4,11111222
Anadarko,ioos:station:wmo:42865:1,2020-01-21T15:24:00Z,28.1628,-88.4839,11.8,21.4,11111222
Anadarko,ioos:station:wmo:42865:1,2020-01-21T15:34:00Z,28.1628,-88.4839,11.8,21.3,11111222
Anadarko,ioos:station:wmo:42865:1,2020-01-21T15:44:00Z,28.1628,-88.4839,11.8,21.3,11111222
Anadarko,ioos:station:wmo:42865:1,2020-01-21T15:54:00Z,28.1628,-88.4839,11.9,21.3,11111222
Anadarko,ioos:station:wmo:42865:1,2020-01-21T16:04:00Z,28.1628,-88.4839,11.9,21.3,11111222
Anadarko,ioos:station:wmo:42865:1,2020-01-21T16:14:00Z,28.1628,-88.4839,11.9,21.3,11111222
Anadarko,ioos:station:wmo:42865:1,2020-01-21T16:24:00Z,28.1628,-88.4839,11.9,21.3,11111222
Anadarko,ioos:station:wmo:42865:1,2020-01-21T16:34:00Z,28.1628,-88.4839,11.9,21.2,11111222
Anadarko,ioos:station:wmo:42865:1,2020-01-21T16:44:00Z,28.1628,-88.4839,11.8,21.2,11111222
Anadarko,ioos:station:wmo:42865:1,2020-01-21T16:54:00Z,28.1628,-88.4839,11.8,21.2,11111222
Anadarko,ioos:station:wmo:42865:1,2020-01-21T17:04:00Z,28.1628,-88.4839,11.8,21.2,11111222
Anadarko,ioos:station:wmo:42865:1,2020-01-21T17:14:00Z,28.1628,-88.4839,11.8,21.2,11111222
Anadarko,ioos:station:wmo:42865:1,2020-01-21T17:24:00Z,28.1628,-88.4839,11.9,21.2,11111222
Anadarko,ioos:station:wmo:42865:1,2020-01-21T17:34:00Z,28.1628,-88.4839,11.9,21.2,11111222
Anadarko,ioos:station:wmo:42865:1,2020-01-21T17:44:00Z,28.1628,-88.4839,11.9,21.2,11111222
Anadarko,ioos:station:wmo:42865:1,2020-01-21T17:54:00Z,28.1628,-88.4839,11.8,21.2,11111222
Anadarko,ioos:station:wmo:42865:1,2020-01-21T18:04:00Z,28.1628,-88.4839,11.8,21.2,11111222
Anadarko,ioos:station:wmo:42865:1,2020-01-21T18:14:00Z,28.1628,-88.4839,11.9,21.2,11111222
Anadarko,ioos:station:wmo:42865:1,2020-01-21T18:24:00Z,28.1628,-88.4839,11.8,21.2,11111222
Anadarko,ioos:station:wmo:42865:1,2020-01-21T18:34:00Z,28.1628,-88.4839,11.8,21.2,11111222